Simultaneous Nadir Overpasses (SNOs) Predictions

Prediction of SNOs between GOES-17 and NOAA-20 Satellite Orbit:

Table of predicted SNOs for the next 14.0 days since TLE Epoch: 4/2/2022
Index Date Time (GOES-17) GOES-17 Lat,Lon NOAA-20 Lat,Lon Distance(km) Time Diff (sec)
1 04/02/2022 22:43:22 0.03,-137.20 -0.38,-139.11 217.24 80
2 04/03/2022 22:21:57 0.03,-137.20 0.60,-134.57 298.58 80
3 04/05/2022 10:46:27 -0.03,-137.19 0.56,-139.85 303.01 80
4 04/06/2022 10:25:02 -0.03,-137.18 -0.42,-135.31 212.35 80
5 04/07/2022 22:49:39 0.03,-137.16 -0.76,-140.61 393.86 80
6 04/08/2022 22:30:56 0.02,-137.15 0.29,-136.09 121.19 80
7 04/10/2022 10:52:44 -0.02,-137.13 0.93,-141.35 481.48 80
8 04/11/2022 10:31:20 -0.02,-137.11 -0.06,-136.82 33.26 80
9 04/13/2022 22:34:33 0.01,-137.07 -0.12,-137.59 59.55 80
10 04/14/2022 22:18:29 0.01,-137.05 0.93,-133.06 454.75 80
